NOAA 17 DEB, 48711

Orbit data source: Space-Track

NOAA 17 DEB, 48711 is space debris in SSO originally from a launch on Mon, 24 Jun 2002 UTC launched from the Air Force Western Test Range (AFWTR). Debris objects in space refer to the collection of defunct objects orbiting the Earth. Examples of debris include non-operational satellites, rocket bodies, and fragments generated from explosions, collisions, or faulty payload assembly.

Loading next visibility...
Identifier
48711, 2002-032AU
Orbit
SSO
Country
Flag of USUS
Related business
Manufacturer
Unknown
Mission
Spacecraft
Bus & Motor
Unknown
Mass
Unknown
Launch date (UTC)
2002-06-24 (23 years ago)
Launch vehicle
Unknown
Launch site
Air Force Western Test Range (AFWTR)
Object type
Payload
Rocket body
Debris
Shape & HBR
Unknown shape, 0.1 m
Radar Cross Section
Small (<0.1 m²)

Expand to show TLE details & history
Last TLE update: 1 day ago

TLE from 1 day ago
0 NOAA 17 DEB
1 48711U 02032AU  25349.32128123  .00003301  00000-0  12232-2 0  9992
2 48711  98.7976 297.0372 0058774 183.5555 176.5218 14.31997228244626
Epoch: 2025-12-15T07:42Z
TLE epoch observation values (Epoch: 2025-12-15T07:42:38.698Z)
Latitude
-0.00003°
Longitude
97.15444°
Altitude
830.024 km
Speed
7.416 km/s
True Right ascension
19h 48m 08s
True Declination
0° 00' 00"
Sunlit
Object was in daylight at epoch
Visualization orbit readout
Latitude
Unknown
Longitude
Unknown
Altitude
Unknown
Speed
Unknown
Apparent Right ascension
Unknown
Apparent Declination
Unknown
Sunlit
N/A
Visualization observer readout
Local Sidereal Time
08:19:40
Azimuth
Unknown
Elevation
Unknown
Doppler factor
Unknown
Orbital elements
Apogee altitude
824.294 km
Perigee altitude
740.125 km
Semi-major axis
7,160.346 km
Eccentricity
0.00588
Inclination
98.7976°
RAAN
297.0372°
Arg. of periapsis
183.5555°
True anomaly
176.56236°
Mean anomaly
176.5218°
Eccentric anomaly
176.54211°
Mean motion
3.58214 °/min
Orbital period
100.5 mins
BSTAR
0.0012232
Loading maneuver chart data...
Computing Atmospheric mass density...
Loading historical data...
Loading historical data...
Loading historical data...
Loading historical data...
Loading historical data...
Loading historical data...
Loading historical data...

Documentation

Showing up to 5 results
|